Location: Guadanolo
(41.9167°N, 12.9333°E)
Time: 04:36:28
(UTC+00:00)

Cosmos 1455 Rocket - Pass Details

Date: 16 September 2019
Orbit: 605 x 630 km, 82.5° (Epoch: 18 October)

Event Time Altitude Azimuth Distance (km) Brightness Sun altitude
Exits shadow 19:44:41 54° 345° (NNW) 764 3.6 -26.9°
Drops below altitude 10° 19:48:14 10° 4° (N) 2,011 6.0 -27.5°
Sets 19:50:29 0° 7° (N) 2,926 6.8 -27.8°
